Location: Ocean City
(38.3360°N, 75.0850°W)
Time: 21:07:00
(UTC-05:00)

Vanguard 1 - Visible Passes

Search period start: 11 November 2019 00:00
Search period end: 21 November 2019 00:00
Orbit: 652 x 3831 km, 34.2° (Epoch: 11 November)

Date Brightness Start Highest point End Pass type
(mag) Time Alt. Az. Time Alt. Az. Time Alt. Az.
11 Nov 12.1 18:25:11 10° WSW 18:29:09 20° SSW 18:34:31 10° SSE visible
12 Nov 12.5 18:47:14 10° SW 18:50:12 14° SSW 18:53:50 10° S visible
15 Nov 12.3 17:30:12 10° SW 17:32:42 14° SSW 17:35:35 10° S visible
